Temperature
19 18 19 19 19 18 18 19 19 19 19 18 18 18 18 18 18 18 18 18 18 18 18 18 18 18 18 18 18 18 18 18 18 18 18 18 18 18 18 18 18 18 18
19 19 19 18 18 18 18 18 18 18 18 18 18 18 18 18 18 18 18 18 18 18 18 18 18 18 18 18 18 18 18 18 17 18 18 18 18 18 18 18 18 18 17
19 19 18 18 18 18 18 18 18 18 18 18 18 18 18 18 18 18 18 18 18 18 18 18 18 18 18 18 18 18 18 18 18 18 18 18 18 18 18 18 18 18 17
19 19 19 18 18 18 18 18 18 18 18 18 18 18 18 18 18 18 18 18 18 18 18 18 18 18 18 18 18 18 18 18 18 18 18 18 18 18 17 17 17 17 17
19 19 19 18 18 18 18 18 19 18 18 18 18 18 18 18 18 18 18 18 18 18 18 18 18 18 18 18 18 18 18 18 18 18 18 18 18 18 18 17 17 17 17
19 19 18 18 18 18 18 18 18 18 18 18 18 18 18 18 18 18 18 18 18 18 18 18 18 18 18 18 18 18 18 18 18 18 18 18 18 18 18 17 17 17 17
19 19 18 18 18 18 18 18 18 18 18 18 18 18 18 18 18 18 18 18 18 18 18 18 18 18 18 18 18 18 18 18 18 18 18 18 18 18 18 18 18 17 17
19 19 19 18 18 18 18 18 18 18 18 18 18 18 18 18 18 18 18 18 18 18 18 18 18 18 18 18 18 18 18 18 18 18 18 18 18 18 18 18 17 17 17
19 19 19 18 18 18 18 18 18 18 18 18 18 18 18 18 18 18 18 18 18 18 18 18 18 18 18 18 18 18 18 18 18 18 18 18 18 18 18 17 17 17 17
19 19 19 19 19 18 18 18 18 18 18 18 18 18 18 18 18 18 18 18 18 18 18 18 18 18 18 18 18 18 18 18 18 18 18 18 18 18 18 17 17 17 17
19 19 19 19 19 19 19 18 18 18 18 18 18 18 18 18 18 18 18 18 18 18 18 18 18 18 18 18 18 18 18 18 18 18 18 18 18 18 17 17 17 17 17
19 19 19 19 19 19 19 19 18 18 18 18 18 18 18 18 18 18 18 18 18 18 18 18 18 18 18 18 18 18 18 18 18 18 18 18 18 18 18 17 17 17 17
19 19 19 19 19 19 19 19 19 18 18 18 18 18 18 18 18 18 18 18 18 18 18 18 18 18 18 18 18 18 18 18 18 18 18 18 18 18 18 17 17 17 17
19 19 19 19 19 19 19 19 19 18 18 18 18 18 18 18 18 18 18 18 18 18 18 18 18 18 18 18 18 18 18 18 18 18 18 18 18 17 17 17 17 17 17
20 19 19 19 19 19 19 19 18 18 18 18 18 18 18 18 18 18 18 18 18 18 18 18 18 18 18 18 18 18 18 18 18 18 18 18 17 17 17 17 17 17 17
20 20 19 19 19 19 19 19 19 18 18 18 18 18 18 18 18 18 18 18 18 18 18 18 18 18 18 18 18 18 18 18 18 18 18 18 17 17 17 17 17 17 17
20 20 20 19 19 19 19 19 19 19 18 18 18 18 18 18 18 18 18 18 18 18 18 18 18 18 18 18 18 18 18 18 18 18 18 17 17 17 17 17 17 17 17
20 20 20 19 19 19 19 19 19 19 19 18 18 18 18 18 18 18 18 18 18 18 18 18 18 18 18 18 18 18 18 18 18 17 17 17 17 17 17 17 16 16 16
20 20 20 20 19 19 19 19 19 19 19 18 18 18 18 18 18 18 18 18 18 18 18 18 18 18 18 18 18 18 18 18 18 17 17 17 17 17 17 16 16 16 16
21 20 20 20 20 19 19 19 19 19 19 19 18 18 18 18 18 18 18 18 18 18 18 18 18 18 18 18 18 18 17 17 17 17 17 17 17 17 17 16 16 16 16
21 20 20 20 20 20 19 19 19 19 19 19 19 18 18 18 18 18 18 18 18 18 18 18 18 18 18 17 17 17 17 17 17 17 17 17 17 17 16 16 16 16 16
21 21 21 20 20 20 19 19 19 19 19 19 19 18 18 18 18 18 18 18 18 18 18 18 18 18 17 17 17 17 17 17 17 17 17 17 17 16 16 16 16 16 16
22 21 21 21 20 20 20 19 19 19 19 19 19 19 19 19 18 18 18 18 18 18 18 18 18 18 18 17 17 17 17 17 17 17 17 17 16 16 16 16 16 16 16
22 22 21 21 20 20 20 19 19 19 19 19 19 19 19 19 19 19 18 18 18 18 18 18 18 18 18 17 17 17 17 17 17 17 17 17 16 16 16 16 16 16 16
22 22 21 21 21 20 20 20 19 19 19 19 19 19 19 19 19 19 19 18 18 18 18 18 18 18 18 18 17 17 17 17 17 16 16 16 16 16 16 16 16 16 16
22 22 21 21 21 20 20 20 20 20 20 19 19 19 19 19 19 19 19 19 18 18 18 18 18 18 18 18 17 17 17 17 17 17 16 16 16 16 16 16 16 16 16
Wind_Speed
2 3 2 4 5 6 7 7 9 11 12 13 14 14 15 16 17 19 19 19 20 21 21 22 21 21 21 21 21 20 20 19 18 18 17 17 17 17 16 16 16 15 17
1 1 2 5 6 7 8 9 10 12 13 14 14 14 15 16 18 19 19 20 20 21 21 21 21 21 21 20 20 20 19 18 17 16 16 16 15 15 15 15 15 14 16
1 1 3 6 7 8 10 11 12 13 13 14 14 15 16 18 18 19 19 20 20 20 20 20 20 21 20 20 19 19 18 17 16 15 14 12 13 14 14 14 15 16 15
2 2 4 6 7 9 11 12 14 14 14 14 15 15 17 18 18 19 19 19 19 19 19 19 19 20 20 19 18 18 17 16 15 14 11 10 10 13 13 13 14 15 14
3 3 4 7 8 9 10 11 13 13 14 14 14 15 16 17 18 19 19 19 18 18 19 18 18 19 18 18 17 16 16 15 14 12 10 10 10 13 13 12 13 13 13
3 3 4 8 8 9 9 11 12 13 13 13 13 15 16 17 17 18 18 18 17 17 18 18 17 17 17 16 16 15 15 14 13 11 10 9 10 12 12 12 13 12 12
3 3 4 7 8 9 9 10 11 11 11 12 12 14 15 16 16 17 16 17 17 17 17 16 16 16 15 14 14 14 14 13 11 10 9 9 9 11 11 11 12 12 12
3 3 4 6 8 8 8 9 9 9 10 11 12 13 14 14 15 15 15 15 15 15 15 15 14 14 13 12 11 12 12 11 10 9 8 8 10 10 10 10 11 11 11
4 3 3 3 5 7 8 7 8 8 9 10 10 12 13 13 13 13 13 13 13 13 13 13 12 12 11 10 10 9 9 10 8 7 7 7 10 11 10 10 10 10 10
3 3 3 2 3 4 5 6 6 7 7 8 9 10 11 11 11 11 11 11 11 11 11 11 11 10 9 9 8 8 9 8 7 6 5 7 9 10 10 10 10 10 9
2 2 2 2 2 3 3 4 5 5 6 6 7 8 8 7 7 7 8 9 9 9 9 9 9 8 8 7 7 7 7 6 6 5 4 6 8 9 9 10 9 9 9
3 2 2 2 2 2 2 3 3 3 4 4 4 5 5 5 4 5 6 7 7 7 8 8 7 7 6 5 5 6 5 6 5 4 5 7 8 8 9 9 9 9 9
4 3 3 3 2 2 1 2 2 2 3 3 3 4 4 4 3 3 2 3 4 4 4 5 4 4 4 4 4 4 5 5 4 4 5 7 8 8 9 9 9 9 9
3 4 3 4 3 2 1 1 1 1 1 1 1 2 2 2 1 1 1 1 2 2 2 2 2 3 3 3 4 4 4 4 4 4 5 7 7 8 9 10 10 9 9
5 5 4 4 4 3 2 1 2 1 1 1 2 2 3 2 1 1 1 1 1 2 2 2 2 2 2 2 3 3 3 4 4 4 4 6 7 7 7 9 9 10 10
6 5 4 5 5 4 3 2 2 2 2 2 2 3 4 3 2 2 1 1 1 2 2 2 2 2 2 2 2 2 3 3 4 4 4 4 5 6 7 8 9 9 9
6 5 5 6 5 5 4 3 2 2 3 2 3 3 4 5 4 3 2 1 2 2 3 2 2 2 2 1 1 1 2 2 3 3 4 3 4 4 5 6 7 8 8
5 5 5 6 6 5 4 3 2 2 3 2 3 3 4 5 5 4 2 2 2 3 3 2 2 2 2 1 1 1 1 1 2 3 3 3 3 3 5 6 7 7 8
7 7 6 5 6 5 4 3 2 2 2 2 3 3 4 5 5 4 3 2 3 3 2 2 2 2 2 1 1 1 1 0 1 1 2 3 3 3 4 5 6 6 7
6 7 7 6 5 5 4 3 2 1 1 1 2 3 4 4 5 5 3 3 3 3 2 2 2 2 2 2 2 2 1 1 0 0 1 1 2 3 4 4 4 5 6
6 7 7 6 5 5 3 3 2 2 1 1 2 3 3 4 4 4 3 3 3 3 3 3 3 3 2 2 2 2 2 1 0 0 0 1 2 2 3 3 3 3 4
8 8 8 7 7 6 4 3 2 2 2 1 1 1 3 3 4 4 4 3 3 3 2 3 3 2 2 2 2 2 1 2 1 1 0 1 1 1 2 2 3 3 3
9 9 9 8 7 6 5 4 3 3 2 1 1 1 2 3 4 4 4 4 3 3 3 3 4 4 3 1 1 2 2 2 1 1 1 0 1 1 1 2 2 3 3
10 9 8 8 7 6 6 5 5 3 3 3 2 2 1 2 4 4 4 4 4 3 4 4 4 3 4 3 1 1 1 2 2 1 1 1 1 1 1 1 1 2 2
10 9 8 7 7 6 6 6 5 3 3 2 2 2 1 1 2 3 4 4 4 3 4 4 4 4 3 3 3 2 1 1 1 2 2 1 1 1 1 2 1 2 2
9 9 8 8 7 6 6 6 6 5 4 3 3 3 2 1 1 2 3 3 4 3 4 4 4 5 4 4 3 3 3 2 3 2 2 2 2 2 1 1 1 2 2
Wind_Direction
313 318 43 71 67 65 66 72 83 84 87 92 96 101 104 104 107 106 107 110 114 116 117 117 118 117 116 117 117 118 120 121 123 123 120 119 123 124 124 124 122 121 122
251 347 75 78 74 70 70 77 88 91 91 92 95 100 105 108 109 108 108 107 109 113 115 115 116 116 116 117 117 117 118 120 123 122 121 123 125 125 125 126 126 126 125
88 67 94 91 84 77 78 83 89 94 93 93 95 99 105 110 111 110 110 109 108 109 111 112 114 115 116 116 117 117 118 118 118 119 118 116 124 127 128 129 128 126 126
97 86 100 96 88 84 85 89 93 94 93 93 94 99 105 109 111 111 111 111 111 112 112 113 114 115 117 116 117 117 118 118 118 115 110 113 121 127 127 129 130 129 130
87 91 107 99 92 91 91 93 95 95 94 93 95 100 106 110 111 112 112 113 113 115 116 116 117 117 117 117 116 117 119 119 117 113 108 111 118 127 127 129 132 134 135
91 97 113 105 99 94 94 94 96 96 96 96 98 101 107 110 112 113 114 114 115 116 116 117 118 119 119 118 117 117 119 120 115 112 112 115 124 132 133 135 135 137 137
110 101 116 106 103 98 96 98 97 99 100 100 101 106 108 111 113 115 116 116 116 116 116 117 118 119 119 119 117 118 119 122 118 118 119 123 132 137 139 140 141 142 142
117 99 110 112 109 104 100 99 100 103 105 105 105 110 112 113 115 117 118 118 118 119 119 119 119 118 119 120 119 121 125 128 127 126 126 133 143 146 146 145 145 147 148
93 87 86 106 115 116 112 106 106 106 106 108 108 112 117 117 117 119 120 121 121 121 123 123 123 121 122 126 125 127 133 132 128 132 137 141 150 153 153 153 154 154 154
84 85 90 86 98 110 118 121 117 113 113 114 116 117 120 119 119 119 121 124 125 126 127 127 127 127 128 132 134 134 137 133 129 133 141 150 155 159 160 160 160 160 161
120 101 112 106 97 112 124 126 117 117 118 116 115 118 114 103 106 115 123 126 129 132 132 130 131 130 128 133 137 137 138 136 139 142 150 162 167 169 169 169 170 170 171
181 179 155 143 133 129 137 108 92 91 93 96 96 98 95 96 101 113 121 125 130 133 132 129 127 125 124 128 137 137 137 146 150 158 173 177 180 183 182 183 183 183 184
190 188 179 170 160 142 98 107 92 79 82 85 92 96 95 90 88 91 84 99 100 114 106 111 105 106 120 130 135 138 147 156 166 176 186 189 192 193 195 195 195 196 197
186 201 190 174 163 163 143 115 114 100 102 122 137 125 112 100 85 106 120 90 75 92 100 97 91 96 113 131 142 144 153 163 175 185 197 202 202 202 203 203 204 206 204
197 207 197 176 172 168 158 168 147 150 165 192 181 168 159 154 151 132 135 122 117 136 134 127 111 109 117 127 142 155 169 178 185 193 201 207 210 212 210 206 208 211 211
201 198 176 173 176 165 167 170 161 176 186 184 197 196 186 185 171 150 147 149 171 173 160 148 138 132 140 141 151 164 177 181 191 197 201 211 220 223 227 218 214 217 218
194 179 170 171 166 164 168 173 173 182 176 182 199 197 193 189 179 168 157 165 172 159 142 128 116 113 136 136 146 154 159 173 183 191 194 200 219 231 235 229 223 223 226
180 174 176 172 162 166 163 158 162 170 167 185 190 187 190 187 181 168 164 178 170 146 137 132 122 118 131 140 151 166 146 161 188 188 191 202 217 237 248 245 238 236 238
182 175 172 167 163 166 156 142 146 151 154 174 175 182 189 184 179 169 168 172 160 146 142 151 130 135 143 147 146 106 81 145 203 198 192 206 218 230 242 256 249 246 250
179 175 172 167 161 150 137 121 110 113 141 166 172 181 181 181 174 165 164 164 152 144 146 142 134 128 137 134 111 74 39 27 48 305 235 225 232 236 236 244 250 258 260
172 172 175 169 165 149 139 144 144 162 170 165 182 183 181 178 170 165 164 160 159 164 168 153 134 127 116 116 98 61 33 36 55 321 278 258 261 256 242 239 240 246 262
183 181 179 178 172 171 169 157 147 139 141 164 171 170 185 184 183 178 174 176 172 164 157 154 143 137 144 139 131 114 18 347 353 20 347 258 276 275 261 252 243 244 252
189 187 187 184 178 178 165 130 103 84 67 91 120 193 202 184 183 181 178 176 177 174 180 178 165 161 172 174 160 156 163 223 288 332 346 317 305 286 277 278 257 255 252
194 186 183 182 181 177 163 155 153 161 177 193 184 195 207 182 182 183 180 178 181 182 184 190 178 173 165 182 189 196 187 163 172 283 315 319 314 282 284 283 274 264 257
187 182 183 180 181 176 170 170 167 176 192 181 164 169 197 197 187 186 183 182 189 192 193 188 176 176 178 182 183 173 151 142 166 184 252 297 315 289 271 259 261 270 270
181 178 179 180 188 182 178 177 179 188 188 176 186 191 203 209 211 204 192 190 195 195 194 195 189 185 189 186 187 182 176 177 187 186 213 244 262 281 281 269 259 267 267
Height
1495 1494 1493 1491 1489 1486 1483 1480 1479 1480 1480 1480 1482 1483 1484 1486 1488 1489 1491 1493 1496 1498 1501 1503 1506 1509 1512 1514 1517 1520 1523 1526 1529 1531 1534 1536 1538 1540 1542 1543 1545 1546 1548
1496 1495 1494 1493 1490 1487 1482 1479 1479 1482 1483 1484 1485 1486 1487 1489 1491 1493 1495 1497 1499 1502 1505 1507 1510 1513 1515 1518 1521 1523 1526 1529 1532 1534 1536 1538 1540 1542 1543 1545 1547 1548 1549
1497 1496 1496 1494 1492 1489 1485 1482 1482 1485 1487 1488 1488 1489 1490 1492 1494 1497 1499 1501 1503 1506 1508 1511 1514 1516 1519 1521 1524 1527 1529 1532 1534 1536 1539 1540 1542 1544 1545 1547 1548 1550 1551
1499 1498 1497 1497 1495 1493 1491 1489 1489 1490 1491 1492 1492 1493 1494 1496 1499 1501 1503 1505 1508 1510 1512 1515 1517 1520 1522 1525 1527 1530 1532 1535 1537 1539 1540 1542 1544 1546 1547 1548 1550 1551 1553
1500 1500 1500 1499 1498 1497 1496 1495 1495 1495 1496 1496 1496 1497 1499 1501 1503 1505 1507 1509 1512 1514 1516 1519 1521 1523 1526 1528 1531 1533 1535 1537 1539 1541 1543 1544 1546 1547 1549 1550 1551 1552 1554
1502 1502 1502 1502 1501 1500 1500 1499 1499 1499 1500 1500 1501 1502 1503 1505 1507 1509 1511 1514 1516 1518 1520 1522 1525 1527 1529 1532 1534 1535 1537 1539 1541 1543 1545 1546 1548 1549 1550 1551 1553 1554 1555
1504 1504 1504 1504 1504 1503 1503 1503 1503 1503 1504 1504 1505 1506 1508 1509 1511 1513 1515 1517 1519 1521 1523 1526 1528 1530 1532 1535 1536 1538 1540 1542 1543 1545 1547 1548 1550 1551 1552 1553 1554 1555 1556
1506 1506 1506 1506 1507 1506 1506 1506 1506 1507 1508 1508 1509 1510 1512 1513 1515 1517 1519 1521 1523 1525 1527 1529 1531 1534 1536 1538 1539 1541 1542 1544 1546 1547 1549 1550 1551 1552 1553 1554 1556 1557 1558
1508 1508 1508 1509 1509 1509 1509 1509 1510 1510 1511 1512 1513 1514 1515 1517 1519 1520 1522 1524 1527 1529 1531 1533 1535 1537 1539 1540 1542 1543 1545 1546 1548 1549 1550 1551 1552 1553 1554 1555 1557 1558 1559
1510 1510 1510 1511 1511 1512 1512 1512 1513 1513 1514 1515 1516 1517 1519 1520 1522 1524 1526 1528 1530 1532 1534 1535 1537 1539 1541 1543 1544 1546 1547 1548 1549 1550 1551 1553 1554 1555 1555 1556 1557 1558 1559
1511 1512 1512 1513 1513 1514 1514 1515 1516 1516 1517 1518 1519 1520 1522 1523 1525 1527 1529 1531 1533 1534 1536 1538 1540 1541 1543 1545 1546 1547 1549 1550 1551 1552 1553 1554 1555 1555 1556 1557 1558 1559 1559
1512 1513 1514 1515 1515 1516 1517 1517 1518 1518 1519 1521 1522 1523 1524 1526 1528 1530 1531 1533 1535 1537 1538 1540 1542 1543 1545 1546 1548 1549 1550 1551 1552 1553 1553 1554 1555 1556 1556 1557 1558 1559 1559
1514 1514 1515 1516 1517 1518 1519 1520 1521 1521 1522 1523 1525 1526 1527 1529 1530 1532 1534 1535 1537 1539 1540 1542 1544 1545 1546 1548 1549 1550 1551 1552 1553 1553 1554 1555 1555 1556 1556 1557 1557 1558 1559
1515 1516 1517 1518 1519 1520 1521 1522 1523 1524 1525 1526 1527 1528 1530 1531 1532 1534 1535 1537 1539 1540 1541 1543 1545 1546 1548 1549 1550 1551 1551 1552 1553 1554 1554 1555 1555 1555 1556 1556 1556 1557 1558
1515 1516 1517 1518 1520 1521 1523 1524 1525 1526 1527 1528 1529 1530 1531 1533 1534 1536 1537 1539 1540 1541 1542 1544 1546 1547 1548 1549 1550 1551 1552 1552 1553 1554 1554 1554 1555 1555 1555 1555 1555 1556 1557
1516 1516 1518 1519 1521 1522 1524 1525 1526 1527 1529 1530 1531 1532 1533 1534 1535 1537 1538 1540 1541 1542 1544 1545 1546 1547 1548 1549 1550 1551 1551 1552 1553 1553 1553 1554 1554 1554 1555 1555 1554 1555 1555
1516 1517 1518 1520 1522 1523 1525 1526 1528 1529 1530 1531 1532 1533 1534 1535 1536 1538 1539 1541 1542 1543 1544 1546 1547 1548 1548 1549 1550 1550 1551 1551 1552 1552 1553 1553 1553 1553 1553 1554 1553 1554 1554
1517 1518 1520 1521 1522 1524 1525 1527 1528 1529 1530 1532 1533 1534 1535 1536 1537 1539 1540 1541 1542 1544 1545 1546 1547 1547 1548 1549 1549 1550 1550 1551 1551 1551 1552 1552 1552 1552 1552 1552 1552 1552 1552
1518 1519 1520 1521 1523 1524 1526 1527 1529 1530 1531 1532 1533 1534 1535 1537 1538 1539 1540 1542 1543 1544 1545 1546 1546 1547 1548 1548 1549 1549 1550 1550 1551 1551 1551 1551 1551 1551 1551 1551 1551 1550 1550
1518 1519 1520 1522 1523 1525 1526 1528 1529 1530 1531 1532 1533 1534 1536 1537 1538 1539 1541 1542 1543 1544 1545 1545 1546 1547 1548 1548 1548 1549 1549 1549 1550 1550 1550 1550 1550 1550 1549 1549 1549 1549 1549
1517 1519 1520 1522 1523 1525 1526 1527 1528 1530 1531 1532 1533 1535 1536 1538 1539 1540 1541 1542 1543 1544 1545 1545 1546 1547 1547 1548 1548 1548 1549 1549 1549 1549 1549 1549 1548 1548 1548 1548 1547 1547 1547
1516 1518 1520 1522 1523 1525 1526 1527 1528 1530 1531 1532 1534 1535 1536 1538 1539 1540 1541 1542 1543 1544 1545 1545 1546 1546 1547 1547 1548 1548 1548 1549 1548 1548 1548 1547 1547 1547 1547 1546 1546 1546 1545
1515 1517 1519 1521 1523 1524 1526 1527 1528 1530 1531 1532 1534 1535 1537 1538 1539 1540 1541 1542 1542 1543 1544 1544 1545 1545 1546 1546 1547 1547 1547 1546 1547 1547 1546 1546 1546 1546 1545 1545 1545 1544 1544
1513 1516 1518 1521 1522 1524 1525 1527 1528 1529 1530 1532 1533 1535 1537 1538 1539 1540 1540 1541 1542 1542 1543 1543 1544 1544 1545 1545 1545 1545 1546 1546 1546 1545 1546 1545 1545 1544 1544 1543 1543 1543 1542
1512 1515 1517 1520 1522 1523 1525 1526 1528 1529 1530 1531 1533 1534 1536 1537 1538 1539 1540 1540 1541 1541 1542 1542 1543 1543 1543 1543 1543 1544 1544 1544 1544 1544 1543 1544 1543 1543 1542 1542 1541 1541 1541
1510 1513 1516 1518 1520 1522 1524 1526 1527 1528 1529 1530 1532 1533 1535 1536 1537 1538 1539 1539 1540 1540 1541 1541 1541 1542 1542 1542 1542 1542 1542 1542 1542 1542 1541 1541 1541 1541 1541 1540 1540 1539 1539